Simultaneous Nadir Overpasses (SNOs) Predictions

Prediction of SNOs between GOES-14 and NOAA-20 Satellite Orbit:

Table of predicted SNOs for the next 14.0 days since TLE Epoch: 9/7/2018
Index Date Time (GOES-14) GOES-14 Lat,Lon NOAA-20 Lat,Lon Distance(km) Time Diff (sec)
1 09/08/2018 08:32:19 0.36,-104.21 0.86,-106.53 263.71 80
2 09/09/2018 08:10:54 0.36,-104.19 -0.15,-101.99 250.51 80
3 09/10/2018 20:32:51 -0.36,-104.29 -1.05,-107.29 343.42 80
4 09/11/2018 20:16:46 -0.36,-104.28 -0.04,-102.76 172.57 80
5 09/13/2018 08:38:35 0.35,-104.17 1.20,-108.04 440.92 80
6 09/14/2018 08:17:10 0.35,-104.15 0.19,-103.51 73.57 80
7 09/16/2018 20:20:22 -0.35,-104.22 -0.38,-104.28 7.20 80
8 09/19/2018 08:26:06 0.33,-104.12 0.54,-105.02 103.27 80
9 09/20/2018 08:04:41 0.34,-104.10 -0.48,-100.49 411.21 80




NCC Satellite Simultaneous Nadir Overpasses (SNOs) Prediction Service
